QPF
0.00 0.00 0.00 0.00 0.00 0.00 0.01 0.02 0.04 0.02 0.00 0.00 0.00 0.00 0.00 0.00 0.00 0.01 0.00 0.00 0.00 0.00 0.00 0.00 0.00 0.00 0.00 0.00 0.00 0.00 0.00 0.00 0.00 0.00 0.00 0.00 0.00 0.00 0.00 0.00 0.00 0.00 0.00 0.00 0.00
0.00 0.00 0.00 0.00 0.00 0.00 0.00 0.01 0.04 0.04 0.01 0.00 0.00 0.00 0.00 0.00 0.00 0.00 0.00 0.00 0.00 0.00 0.00 0.00 0.00 0.00 0.00 0.00 0.00 0.00 0.00 0.00 0.00 0.00 0.00 0.00 0.00 0.00 0.00 0.00 0.00 0.00 0.00 0.00 0.00
0.00 0.00 0.00 0.00 0.00 0.00 0.00 0.00 0.02 0.05 0.05 0.00 0.00 0.00 0.00 0.00 0.00 0.00 0.00 0.00 0.00 0.01 0.00 0.00 0.00 0.00 0.00 0.00 0.00 0.00 0.00 0.00 0.00 0.00 0.00 0.00 0.00 0.00 0.00 0.00 0.00 0.00 0.00 0.00 0.00
0.00 0.00 0.00 0.00 0.00 0.00 0.00 0.00 0.00 0.03 0.08 0.04 0.00 0.00 0.00 0.00 0.00 0.00 0.00 0.00 0.04 0.07 0.01 0.00 0.00 0.00 0.00 0.00 0.00 0.00 0.00 0.00 0.00 0.00 0.00 0.00 0.00 0.00 0.00 0.00 0.00 0.00 0.00 0.00 0.00
0.00 0.00 0.00 0.00 0.00 0.00 0.00 0.00 0.00 0.01 0.09 0.12 0.01 0.00 0.00 0.00 0.00 0.00 0.00 0.01 0.07 0.10 0.02 0.02 0.00 0.00 0.00 0.00 0.00 0.00 0.00 0.00 0.00 0.00 0.00 0.00 0.00 0.00 0.00 0.00 0.00 0.00 0.00 0.00 0.00
0.00 0.00 0.00 0.00 0.00 0.00 0.00 0.00 0.00 0.00 0.06 0.13 0.04 0.00 0.00 0.00 0.00 0.00 0.00 0.00 0.01 0.08 0.06 0.08 0.01 0.00 0.00 0.00 0.00 0.00 0.00 0.00 0.00 0.00 0.00 0.00 0.00 0.00 0.00 0.00 0.00 0.00 0.00 0.00 0.00
0.01 0.01 0.00 0.00 0.00 0.00 0.00 0.00 0.00 0.00 0.03 0.16 0.17 0.01 0.00 0.00 0.00 0.00 0.00 0.00 0.00 0.01 0.04 0.08 0.03 0.00 0.00 0.00 0.00 0.00 0.00 0.00 0.00 0.00 0.00 0.00 0.00 0.00 0.00 0.00 0.00 0.00 0.00 0.00 0.00
0.01 0.01 0.01 0.00 0.00 0.00 0.00 0.00 0.01 0.00 0.01 0.13 0.23 0.02 0.00 0.00 0.00 0.00 0.00 0.00 0.00 0.00 0.00 0.07 0.04 0.00 0.00 0.00 0.00 0.00 0.00 0.00 0.00 0.00 0.00 0.00 0.00 0.00 0.00 0.00 0.00 0.00 0.00 0.00 0.00
0.01 0.01 0.01 0.01 0.00 0.00 0.00 0.00 0.01 0.00 0.00 0.12 0.40 0.07 0.00 0.00 0.00 0.00 0.00 0.00 0.00 0.00 0.00 0.03 0.03 0.00 0.00 0.00 0.00 0.00 0.00 0.00 0.00 0.00 0.00 0.00 0.00 0.00 0.00 0.00 0.00 0.00 0.00 0.00 0.00
0.01 0.01 0.02 0.02 0.01 0.01 0.02 0.02 0.00 0.00 0.01 0.25 0.45 0.13 0.01 0.00 0.00 0.00 0.00 0.00 0.00 0.00 0.02 0.01 0.01 0.00 0.00 0.00 0.00 0.00 0.00 0.00 0.00 0.00 0.00 0.00 0.00 0.00 0.00 0.00 0.00 0.00 0.00 0.00 0.00
0.02 0.02 0.03 0.02 0.01 0.04 0.05 0.01 0.01 0.02 0.03 0.29 0.34 0.06 0.00 0.00 0.00 0.00 0.00 0.00 0.01 0.02 0.01 0.01 0.00 0.00 0.00 0.00 0.00 0.00 0.00 0.00 0.00 0.00 0.00 0.00 0.00 0.00 0.00 0.00 0.00 0.00 0.00 0.00 0.00
0.02 0.02 0.02 0.02 0.01 0.03 0.06 0.01 0.03 0.03 0.03 0.18 0.19 0.01 0.00 0.00 0.00 0.00 0.00 0.00 0.00 0.01 0.00 0.00 0.00 0.00 0.00 0.00 0.00 0.00 0.00 0.00 0.00 0.00 0.00 0.00 0.00 0.00 0.00 0.00 0.00 0.00 0.00 0.00 0.00
0.02 0.00 0.01 0.02 0.00 0.02 0.05 0.09 0.04 0.03 0.07 0.12 0.31 0.14 0.00 0.00 0.00 0.00 0.00 0.00 0.00 0.00 0.00 0.00 0.00 0.00 0.00 0.00 0.00 0.00 0.00 0.00 0.00 0.00 0.00 0.00 0.00 0.00 0.00 0.00 0.00 0.00 0.00 0.00 0.00
0.01 0.01 0.01 0.03 0.02 0.02 0.04 0.26 0.04 0.07 0.11 0.08 0.35 0.23 0.01 0.00 0.00 0.00 0.00 0.00 0.00 0.00 0.00 0.00 0.00 0.00 0.00 0.00 0.00 0.00 0.00 0.00 0.00 0.00 0.00 0.00 0.00 0.00 0.00 0.00 0.00 0.00 0.00 0.00 0.00
0.01 0.01 0.02 0.05 0.01 0.00 0.05 0.07 0.01 0.04 0.10 0.05 0.22 0.11 0.00 0.00 0.00 0.00 0.00 0.00 0.00 0.00 0.00 0.00 0.00 0.00 0.00 0.00 0.00 0.00 0.00 0.00 0.00 0.00 0.00 0.00 0.00 0.00 0.00 0.00 0.00 0.00 0.00 0.00 0.00
0.00 0.00 0.02 0.03 0.07 0.04 0.02 0.08 0.03 0.03 0.16 0.22 0.23 0.08 0.01 0.01 0.00 0.00 0.00 0.00 0.00 0.00 0.00 0.00 0.00 0.00 0.00 0.00 0.00 0.00 0.00 0.00 0.00 0.00 0.00 0.00 0.00 0.00 0.00 0.00 0.00 0.00 0.00 0.00 0.00
0.00 0.00 0.02 0.06 0.08 0.02 0.01 0.02 0.01 0.03 0.21 0.16 0.14 0.02 0.01 0.01 0.00 0.00 0.00 0.00 0.00 0.00 0.00 0.00 0.00 0.00 0.00 0.00 0.00 0.00 0.00 0.00 0.00 0.00 0.00 0.00 0.00 0.00 0.00 0.00 0.00 0.00 0.00 0.00 0.00
0.00 0.00 0.00 0.03 0.06 0.01 0.02 0.01 0.02 0.04 0.21 0.09 0.02 0.01 0.01 0.01 0.01 0.00 0.00 0.00 0.00 0.00 0.00 0.00 0.00 0.00 0.00 0.00 0.00 0.00 0.00 0.00 0.00 0.00 0.00 0.00 0.00 0.00 0.00 0.00 0.00 0.00 0.00 0.00 0.00
0.00 0.00 0.00 0.02 0.01 0.00 0.01 0.01 0.00 0.22 0.14 0.14 0.09 0.08 0.04 0.01 0.01 0.01 0.00 0.00 0.00 0.00 0.00 0.00 0.00 0.00 0.00 0.00 0.00 0.00 0.00 0.00 0.00 0.00 0.00 0.00 0.00 0.00 0.00 0.00 0.00 0.00 0.00 0.00 0.00
0.01 0.04 0.02 0.03 0.01 0.01 0.02 0.01 0.01 0.14 0.19 0.05 0.11 0.04 0.01 0.01 0.01 0.00 0.00 0.00 0.00 0.00 0.00 0.00 0.00 0.00 0.00 0.00 0.00 0.00 0.00 0.00 0.00 0.00 0.00 0.00 0.00 0.00 0.00 0.00 0.00 0.00 0.00 0.00 0.00
0.01 0.03 0.06 0.03 0.01 0.02 0.01 0.02 0.04 0.14 0.14 0.04 0.00 0.00 0.00 0.00 0.00 0.00 0.00 0.00 0.00 0.00 0.00 0.00 0.00 0.00 0.00 0.00 0.00 0.00 0.00 0.00 0.00 0.00 0.00 0.00 0.00 0.00 0.00 0.00 0.00 0.00 0.00 0.00 0.00
0.01 0.09 0.05 0.05 0.01 0.01 0.02 0.03 0.29 0.21 0.04 0.00 0.00 0.00 0.00 0.00 0.00 0.00 0.00 0.00 0.00 0.00 0.00 0.00 0.00 0.00 0.00 0.00 0.00 0.00 0.00 0.00 0.00 0.00 0.00 0.00 0.00 0.00 0.00 0.00 0.00 0.00 0.00 0.00 0.00
0.00 0.01 0.02 0.01 0.00 0.01 0.03 0.10 0.21 0.05 0.01 0.01 0.00 0.00 0.00 0.00 0.00 0.00 0.00 0.00 0.00 0.00 0.00 0.00 0.00 0.00 0.00 0.00 0.00 0.00 0.00 0.00 0.00 0.00 0.00 0.00 0.00 0.00 0.00 0.00 0.00 0.00 0.00 0.00 0.00
0.00 0.02 0.01 0.02 0.01 0.03 0.07 0.17 0.12 0.05 0.01 0.00 0.00 0.00 0.00 0.00 0.00 0.00 0.00 0.00 0.00 0.00 0.00 0.00 0.00 0.00 0.00 0.00 0.00 0.00 0.00 0.00 0.00 0.01 0.00 0.00 0.00 0.00 0.00 0.00 0.00 0.00 0.00 0.00 0.00
0.00 0.00 0.00 0.01 0.01 0.01 0.07 0.08 0.03 0.01 0.00 0.00 0.00 0.00 0.00 0.00 0.00 0.00 0.00 0.00 0.00 0.00 0.00 0.00 0.00 0.00 0.00 0.00 0.00 0.00 0.00 0.00 0.00 0.00 0.02 0.00 0.00 0.00 0.00 0.00 0.00 0.00 0.00 0.01 0.03
0.00 0.03 0.01 0.07 0.03 0.01 0.11 0.14 0.04 0.00 0.00 0.00 0.00 0.00 0.00 0.00 0.00 0.00 0.00 0.00 0.00 0.00 0.00 0.00 0.00 0.00 0.00 0.00 0.00 0.00 0.00 0.00 0.00 0.00 0.01 0.00 0.00 0.00 0.00 0.00 0.00 0.00 0.00 0.01 0.02
0.00 0.00 0.00 0.04 0.02 0.07 0.12 0.08 0.01 0.00 0.00 0.00 0.00 0.00 0.00 0.00 0.00 0.00 0.00 0.00 0.00 0.00 0.00 0.00 0.00 0.00 0.00 0.00 0.00 0.00 0.00 0.00 0.00 0.00 0.00 0.00 0.00 0.00 0.00 0.00 0.00 0.00 0.00 0.00 0.01
MSLP
1017.69 1017.21 1016.89 1016.48 1016.04 1015.72 1015.35 1014.95 1014.42 1013.93 1013.81 1013.85 1013.83 1013.75 1013.62 1013.61 1013.43 1013.09 1012.51 1011.86 1012.05 1011.64 1011.77 1012.01 1012.07 1012.26 1012.37 1012.66 1012.69 1012.73 1013.35 1013.01 1012.30 1011.67 1010.63 1009.07 1008.89 1007.81 1006.97 1006.96 1007.09 1007.26 1007.98 1008.14 1008.40
1017.61 1017.20 1016.80 1016.43 1016.10 1015.61 1015.23 1014.97 1014.50 1013.89 1013.46 1013.45 1013.50 1013.43 1013.32 1013.40 1013.25 1012.30 1011.10 1011.14 1010.91 1011.24 1011.67 1011.86 1011.97 1012.20 1012.66 1012.50 1012.75 1012.66 1012.60 1012.13 1011.31 1011.02 1010.46 1009.67 1009.23 1008.68 1007.71 1007.49 1007.55 1007.70 1008.19 1008.24 1008.25
1017.54 1017.09 1016.69 1016.33 1015.94 1015.49 1015.12 1014.60 1014.33 1013.82 1013.23 1012.97 1013.01 1012.99 1013.13 1013.27 1012.78 1010.46 1009.61 1010.35 1010.55 1010.88 1011.22 1011.51 1011.78 1012.24 1012.60 1012.56 1012.42 1012.07 1012.01 1011.70 1011.16 1010.60 1010.36 1009.99 1009.36 1009.08 1008.83 1008.47 1008.01 1008.11 1008.59 1008.74 1008.39
1017.35 1016.95 1016.46 1016.01 1015.69 1015.31 1014.88 1014.63 1014.03 1013.59 1012.99 1012.55 1012.50 1012.75 1012.99 1013.11 1011.98 1009.51 1008.74 1009.62 1010.09 1010.57 1011.30 1011.60 1011.77 1012.26 1012.32 1012.32 1012.02 1012.16 1011.66 1011.63 1011.12 1010.56 1010.56 1010.22 1009.82 1009.56 1009.36 1009.21 1008.82 1008.43 1008.38 1008.77 1009.02
1017.00 1016.60 1016.19 1015.84 1015.40 1015.02 1014.61 1014.25 1013.84 1013.38 1012.81 1012.52 1012.11 1012.45 1012.94 1012.54 1010.76 1009.42 1009.11 1009.47 1010.06 1010.69 1011.02 1011.33 1011.54 1011.86 1011.77 1011.87 1011.80 1011.79 1011.70 1011.34 1010.97 1010.56 1010.48 1009.96 1009.97 1009.98 1009.52 1009.33 1008.67 1008.58 1008.80 1008.90 1009.00
1016.78 1016.29 1015.81 1015.44 1015.03 1014.68 1014.29 1013.97 1013.58 1013.08 1012.67 1012.14 1011.70 1012.07 1012.48 1011.27 1009.33 1009.27 1009.51 1009.93 1010.03 1010.52 1010.82 1011.05 1011.15 1011.30 1011.47 1011.51 1011.57 1011.36 1011.43 1011.33 1011.01 1010.70 1010.60 1010.39 1010.03 1009.98 1009.68 1009.14 1009.21 1009.07 1008.67 1009.11 1009.27
1016.30 1015.92 1015.57 1015.06 1014.70 1014.26 1013.86 1013.53 1013.15 1012.80 1012.27 1012.00 1011.79 1011.64 1011.44 1010.18 1009.00 1009.14 1009.39 1009.54 1009.65 1009.93 1010.46 1010.66 1010.95 1011.12 1011.26 1011.42 1011.40 1011.42 1011.71 1011.37 1011.06 1010.95 1010.71 1010.58 1010.11 1009.80 1009.72 1009.60 1009.55 1009.52 1009.08 1008.51 1008.88
1015.88 1015.34 1014.88 1014.76 1014.27 1013.82 1013.37 1013.09 1012.68 1012.38 1011.88 1011.59 1011.12 1010.98 1010.30 1009.23 1009.09 1009.28 1009.30 1009.40 1009.26 1009.46 1009.94 1010.42 1011.10 1011.26 1011.45 1011.68 1011.56 1011.76 1012.18 1012.07 1011.14 1010.73 1010.39 1010.92 1009.59 1009.67 1009.25 1009.64 1009.60 1009.17 1008.97 1008.61 1008.15
1015.48 1015.09 1014.58 1014.18 1013.85 1013.34 1012.94 1012.46 1012.06 1011.72 1011.31 1011.05 1010.85 1010.15 1009.68 1008.42 1008.61 1008.77 1009.15 1009.22 1009.16 1009.37 1009.57 1010.26 1011.03 1011.56 1011.76 1012.14 1012.51 1012.62 1012.90 1012.15 1011.42 1010.06 1010.01 1010.30 1009.90 1009.05 1008.97 1009.33 1009.13 1008.73 1008.33 1008.14 1007.89
1015.01 1014.65 1014.20 1013.79 1013.34 1012.78 1012.42 1011.98 1011.03 1010.74 1010.72 1010.67 1010.31 1010.37 1008.99 1007.99 1008.19 1008.38 1008.80 1009.07 1009.28 1009.58 1010.07 1010.68 1011.38 1011.71 1012.22 1012.72 1012.87 1012.93 1012.79 1012.18 1011.58 1010.50 1009.99 1010.15 1010.11 1009.14 1008.63 1008.66 1008.60 1008.42 1007.95 1007.63 1007.28
1014.61 1014.13 1013.75 1013.33 1012.78 1012.24 1012.12 1011.84 1010.90 1010.68 1010.29 1008.64 1008.16 1007.62 1006.55 1007.29 1007.87 1008.22 1008.59 1008.89 1009.27 1009.98 1010.60 1011.02 1011.62 1012.01 1012.35 1012.58 1012.54 1012.73 1012.66 1012.33 1011.51 1011.11 1011.02 1010.56 1010.21 1009.56 1008.72 1008.31 1007.71 1007.67 1007.52 1006.75 1006.33
1014.12 1013.78 1013.39 1012.84 1012.34 1011.85 1011.80 1011.85 1011.14 1011.41 1010.40 1008.60 1008.06 1007.45 1006.66 1007.01 1007.67 1008.19 1008.28 1008.87 1009.39 1010.10 1010.76 1011.65 1011.72 1011.95 1012.29 1012.55 1012.79 1012.86 1012.73 1012.32 1011.53 1011.16 1011.19 1010.81 1009.71 1009.17 1007.88 1007.26 1006.65 1006.52 1006.49 1005.98 1005.88
1013.80 1013.43 1012.95 1012.43 1012.02 1011.68 1011.70 1011.51 1011.05 1010.88 1010.66 1008.83 1008.11 1007.69 1006.85 1007.10 1007.56 1007.87 1008.37 1008.60 1009.28 1010.29 1010.65 1011.31 1011.67 1011.71 1012.22 1012.61 1012.64 1012.66 1012.64 1012.62 1012.74 1012.16 1012.00 1011.61 1009.62 1007.99 1006.35 1005.52 1005.41 1005.18 1005.15 1005.44 1005.35
1013.51 1013.00 1012.47 1012.22 1012.01 1011.80 1011.45 1011.39 1011.13 1010.57 1010.42 1008.88 1008.57 1007.56 1007.19 1007.03 1007.80 1008.20 1008.44 1008.54 1009.46 1010.16 1010.79 1011.34 1011.33 1011.62 1011.93 1012.46 1012.59 1012.83 1012.92 1013.09 1013.39 1013.67 1013.98 1013.41 1011.78 1008.92 1006.38 1005.41 1004.97 1004.53 1004.57 1004.60 1004.66
1012.94 1012.54 1012.18 1012.04 1012.23 1012.00 1011.52 1011.29 1011.35 1011.24 1009.75 1008.08 1007.95 1006.71 1006.78 1007.18 1007.74 1008.56 1008.39 1008.47 1009.21 1009.71 1010.75 1011.38 1011.36 1011.72 1012.13 1012.28 1012.62 1013.22 1013.36 1013.83 1014.30 1014.87 1015.08 1014.03 1013.42 1008.67 1007.14 1005.95 1004.92 1004.48 1003.98 1003.83 1003.79
1012.44 1012.10 1011.68 1011.41 1011.29 1011.14 1011.14 1011.27 1011.33 1011.12 1009.57 1007.39 1007.02 1006.63 1007.08 1007.56 1007.75 1008.36 1008.82 1008.89 1009.23 1010.03 1010.84 1011.43 1011.55 1012.03 1012.24 1012.49 1012.78 1013.45 1014.04 1014.66 1015.20 1015.86 1015.88 1013.73 1013.10 1009.54 1007.12 1005.51 1004.80 1004.18 1003.78 1003.41 1003.73
1011.93 1011.38 1010.71 1010.29 1010.18 1010.61 1010.98 1011.30 1011.44 1010.58 1009.03 1007.95 1007.03 1006.95 1007.29 1007.77 1008.45 1008.88 1009.20 1009.53 1009.83 1010.95 1011.73 1012.02 1012.27 1012.36 1012.31 1012.82 1013.28 1013.77 1014.67 1016.19 1016.57 1016.90 1015.60 1013.78 1013.00 1008.96 1006.81 1005.34 1004.56 1004.14 1003.80 1003.60 1003.87
1011.15 1010.44 1009.74 1009.56 1009.28 1010.11 1010.95 1011.38 1010.98 1009.06 1008.00 1007.26 1006.71 1007.41 1007.57 1008.09 1009.20 1009.43 1009.82 1010.18 1010.38 1010.70 1011.90 1012.42 1013.09 1012.56 1012.38 1012.76 1013.32 1014.19 1014.99 1016.15 1016.87 1016.98 1015.98 1013.72 1011.65 1007.91 1005.72 1004.66 1004.08 1003.70 1003.52 1003.82 1003.92
1010.43 1009.98 1009.63 1008.98 1008.95 1010.27 1010.95 1010.89 1009.63 1009.01 1007.90 1007.12 1007.47 1007.71 1007.96 1008.42 1009.03 1009.72 1010.24 1010.55 1010.53 1010.74 1011.45 1012.20 1012.37 1012.00 1012.22 1012.58 1013.30 1014.26 1015.07 1015.82 1016.84 1017.30 1016.59 1013.79 1010.45 1007.44 1005.48 1005.12 1004.73 1004.49 1004.48 1004.77 1004.35
1010.58 1010.27 1009.93 1009.52 1009.75 1010.85 1011.02 1010.10 1009.64 1009.17 1008.44 1007.24 1007.05 1007.32 1007.67 1008.39 1009.11 1009.61 1010.20 1010.36 1010.36 1010.48 1010.87 1011.46 1012.20 1012.43 1012.48 1012.78 1013.34 1013.95 1014.58 1016.09 1017.47 1017.75 1016.83 1013.86 1011.27 1008.22 1006.49 1005.96 1005.54 1005.52 1005.45 1005.42 1005.13
1010.91 1010.65 1010.80 1010.42 1010.51 1011.04 1011.08 1010.07 1009.38 1008.43 1007.65 1007.16 1006.68 1006.71 1007.35 1008.17 1008.78 1009.41 1009.90 1009.63 1009.93 1010.15 1010.69 1010.91 1011.84 1013.53 1013.20 1013.28 1013.19 1013.88 1014.53 1015.63 1016.59 1017.25 1016.90 1014.93 1010.97 1007.25 1006.42 1005.96 1005.87 1005.94 1005.87 1005.71 1005.33
1011.50 1011.43 1011.36 1011.22 1011.43 1011.42 1010.73 1009.83 1009.74 1008.32 1007.45 1006.63 1006.12 1006.38 1007.22 1007.86 1008.65 1008.80 1009.26 1008.91 1009.21 1009.54 1010.54 1011.00 1012.06 1013.20 1013.30 1013.08 1013.17 1013.83 1014.47 1015.21 1016.48 1016.92 1016.51 1015.36 1011.17 1007.04 1006.03 1006.03 1005.91 1005.51 1005.44 1005.32 1005.02
1012.00 1011.89 1011.50 1011.49 1011.66 1011.41 1010.31 1009.95 1009.35 1007.87 1006.70 1005.73 1005.51 1005.71 1006.60 1007.30 1008.27 1008.38 1008.73 1008.56 1008.88 1009.31 1010.01 1010.99 1012.22 1013.25 1013.53 1013.61 1013.41 1013.83 1014.04 1014.74 1015.55 1016.12 1015.61 1014.76 1010.39 1006.81 1006.39 1006.00 1005.91 1006.01 1005.98 1005.37 1004.85
1012.50 1012.56 1011.97 1011.62 1011.65 1011.08 1010.27 1009.73 1008.47 1007.49 1006.52 1005.36 1005.36 1005.68 1006.36 1007.13 1007.61 1008.40 1008.92 1009.14 1009.20 1009.53 1010.11 1010.91 1012.21 1013.01 1013.32 1012.97 1012.91 1013.38 1013.49 1014.05 1014.70 1015.35 1013.70 1011.75 1009.63 1007.26 1007.10 1006.53 1006.06 1005.87 1005.75 1005.16 1004.92
1012.82 1013.02 1013.10 1012.13 1011.39 1010.88 1010.38 1009.59 1008.47 1007.25 1006.30 1005.74 1006.10 1006.38 1006.66 1007.15 1007.78 1008.52 1009.08 1009.67 1010.10 1010.23 1010.67 1011.44 1012.57 1013.02 1012.96 1012.81 1012.79 1012.78 1012.88 1013.03 1013.23 1012.64 1012.68 1009.21 1009.22 1007.31 1007.07 1006.72 1005.96 1005.51 1005.36 1005.02 1004.83
1013.33 1013.51 1013.07 1012.49 1011.60 1010.67 1010.34 1009.71 1008.71 1007.51 1006.91 1006.40 1006.46 1006.51 1006.78 1007.51 1007.43 1008.17 1008.94 1009.67 1010.18 1010.91 1011.26 1011.96 1012.90 1013.09 1012.92 1012.05 1011.89 1011.76 1011.43 1011.51 1011.42 1010.92 1010.55 1009.42 1007.91 1007.58 1006.61 1006.03 1005.67 1005.90 1005.56 1005.25 1004.90
1013.68 1013.47 1013.29 1012.20 1011.45 1010.81 1010.31 1009.79 1008.62 1007.86 1007.25 1007.03 1007.12 1007.31 1007.60 1008.14 1007.91 1008.03 1008.50 1009.25 1009.76 1010.63 1011.39 1012.33 1013.00 1013.44 1012.82 1011.55 1011.00 1010.38 1008.96 1009.15 1009.12 1008.87 1008.44 1008.27 1007.21 1006.76 1006.28 1006.09 1006.39 1006.33 1006.09 1005.62 1005.05
Thickness
5540 5540 5540 5541 5543 5545 5547 5549 5553 5556 5557 5558 5561 5565 5570 5575 5582 5594 5603 5613 5618 5626 5629 5633 5637 5639 5643 5642 5648 5653 5628 5631 5652 5660 5678 5699 5690 5710 5718 5719 5725 5726 5721 5723 5733
5534 5533 5533 5534 5534 5537 5539 5540 5543 5549 5553 5554 5554 5558 5563 5567 5574 5589 5604 5609 5617 5621 5621 5621 5625 5629 5625 5635 5636 5633 5629 5642 5668 5669 5672 5685 5683 5686 5699 5707 5712 5715 5719 5724 5725
5525 5525 5523 5525 5526 5528 5531 5535 5537 5541 5546 5549 5550 5554 5556 5560 5569 5593 5606 5606 5610 5613 5616 5619 5621 5621 5617 5625 5630 5637 5629 5651 5660 5668 5672 5674 5680 5684 5684 5689 5704 5703 5705 5709 5715
5518 5517 5516 5516 5515 5518 5521 5523 5529 5533 5540 5545 5546 5546 5549 5553 5562 5595 5606 5604 5605 5607 5606 5608 5611 5610 5610 5614 5629 5622 5639 5644 5654 5661 5661 5665 5676 5673 5681 5687 5697 5708 5706 5706 5704
5511 5507 5506 5505 5505 5505 5509 5512 5517 5522 5529 5533 5539 5539 5540 5546 5566 5587 5593 5596 5596 5597 5599 5600 5601 5604 5606 5613 5620 5620 5629 5641 5649 5653 5655 5668 5667 5666 5674 5684 5697 5699 5697 5699 5699
5501 5499 5495 5491 5492 5491 5494 5499 5504 5512 5518 5525 5531 5532 5533 5544 5571 5579 5582 5584 5588 5589 5591 5595 5600 5605 5607 5609 5614 5624 5628 5631 5640 5644 5646 5654 5661 5663 5672 5683 5683 5686 5689 5689 5690
5488 5483 5478 5473 5475 5477 5478 5483 5491 5497 5508 5514 5519 5526 5533 5546 5565 5572 5574 5579 5585 5587 5585 5592 5595 5596 5602 5602 5613 5618 5611 5622 5631 5636 5637 5648 5645 5650 5666 5670 5672 5677 5682 5690 5688
5470 5463 5458 5451 5447 5452 5458 5463 5473 5483 5495 5504 5513 5521 5532 5547 5556 5561 5567 5572 5581 5585 5586 5587 5586 5588 5592 5599 5604 5600 5602 5597 5623 5630 5638 5634 5640 5655 5664 5662 5666 5676 5680 5681 5689
5448 5437 5429 5422 5417 5418 5425 5441 5451 5466 5481 5492 5502 5516 5526 5547 5551 5556 5559 5564 5572 5578 5582 5583 5579 5577 5584 5581 5581 5586 5576 5589 5605 5631 5633 5632 5633 5656 5661 5660 5663 5672 5679 5683 5688
5426 5412 5404 5398 5396 5398 5400 5409 5429 5447 5466 5477 5492 5498 5525 5542 5546 5552 5555 5559 5563 5567 5567 5567 5566 5566 5566 5567 5564 5574 5574 5588 5594 5618 5628 5626 5625 5647 5657 5659 5661 5667 5670 5676 5685
5404 5396 5388 5385 5387 5388 5389 5393 5405 5422 5442 5486 5500 5524 5541 5541 5542 5546 5550 5553 5557 5555 5551 5559 5554 5553 5558 5563 5571 5575 5580 5585 5597 5609 5613 5617 5622 5636 5648 5655 5666 5669 5666 5679 5686
5391 5385 5382 5385 5387 5387 5386 5384 5395 5399 5424 5467 5490 5512 5530 5535 5533 5539 5547 5546 5550 5546 5551 5547 5549 5560 5562 5563 5564 5568 5571 5580 5593 5606 5607 5612 5627 5636 5651 5658 5668 5670 5670 5678 5683
5385 5383 5385 5388 5388 5388 5385 5387 5390 5400 5413 5454 5482 5502 5520 5528 5529 5534 5541 5546 5545 5540 5548 5541 5552 5559 5555 5555 5563 5566 5570 5573 5577 5590 5596 5599 5620 5638 5659 5667 5671 5675 5678 5677 5678
5386 5386 5388 5388 5388 5385 5386 5386 5389 5403 5424 5459 5473 5492 5509 5523 5521 5531 5536 5543 5541 5540 5544 5544 5552 5553 5551 5552 5558 5556 5567 5573 5575 5572 5569 5584 5583 5618 5649 5660 5666 5665 5669 5674 5675
5392 5390 5390 5388 5383 5383 5387 5387 5390 5400 5429 5471 5474 5500 5514 5517 5521 5520 5533 5542 5537 5543 5543 5538 5546 5548 5547 5552 5557 5554 5563 5562 5563 5559 5551 5572 5564 5619 5632 5649 5658 5666 5664 5665 5669
5395 5392 5390 5389 5388 5388 5390 5390 5396 5408 5432 5477 5485 5499 5505 5513 5520 5522 5527 5538 5542 5541 5540 5539 5548 5544 5544 5551 5554 5556 5556 5556 5557 5546 5529 5565 5574 5602 5630 5645 5653 5654 5656 5661 5659
5398 5396 5394 5393 5392 5390 5391 5394 5391 5396 5446 5471 5482 5502 5509 5514 5512 5517 5524 5524 5523 5517 5514 5533 5535 5541 5547 5542 5550 5551 5540 5495 5546 5538 5530 5577 5569 5602 5622 5636 5640 5640 5642 5647 5646
5404 5401 5400 5397 5398 5395 5394 5404 5403 5456 5462 5479 5496 5504 5506 5512 5508 5516 5519 5512 5527 5532 5505 5503 5506 5532 5543 5543 5538 5540 5537 5500 5513 5514 5552 5573 5575 5609 5629 5631 5634 5639 5641 5634 5636
5408 5402 5398 5400 5403 5397 5403 5416 5438 5448 5466 5483 5487 5491 5496 5508 5511 5511 5516 5515 5523 5531 5518 5511 5525 5544 5545 5548 5544 5539 5524 5540 5518 5527 5498 5550 5585 5610 5623 5617 5615 5616 5616 5609 5611
5408 5400 5397 5400 5403 5404 5409 5434 5444 5445 5452 5487 5492 5501 5500 5508 5507 5511 5513 5521 5529 5533 5536 5540 5525 5541 5543 5546 5545 5537 5543 5511 5480 5480 5502 5545 5566 5588 5604 5599 5598 5594 5590 5587 5587
5407 5406 5398 5403 5411 5410 5413 5439 5449 5454 5473 5487 5501 5511 5510 5512 5512 5513 5513 5528 5529 5532 5536 5543 5528 5517 5534 5532 5535 5537 5534 5531 5516 5499 5488 5507 5557 5593 5598 5596 5592 5585 5579 5574 5571
5401 5404 5405 5410 5405 5414 5435 5452 5443 5466 5483 5497 5511 5513 5512 5515 5511 5522 5515 5531 5536 5537 5532 5539 5530 5509 5513 5533 5540 5536 5532 5534 5476 5487 5483 5501 5543 5593 5595 5588 5581 5583 5578 5570 5562
5408 5409 5416 5419 5414 5423 5447 5448 5453 5483 5500 5515 5519 5523 5519 5519 5513 5524 5527 5535 5540 5540 5539 5535 5524 5518 5528 5532 5537 5526 5537 5529 5519 5498 5480 5494 5541 5588 5578 5579 5577 5567 5558 5553 5551
5418 5417 5426 5428 5432 5442 5453 5458 5473 5492 5503 5521 5524 5524 5523 5519 5522 5523 5522 5529 5535 5539 5540 5539 5526 5499 5505 5529 5530 5514 5529 5522 5523 5495 5525 5525 5554 5573 5569 5571 5569 5562 5547 5544 5538
5425 5429 5424 5440 5446 5454 5460 5468 5483 5501 5512 5520 5517 5520 5523 5523 5524 5522 5522 5522 5525 5531 5533 5529 5498 5517 5522 5529 5532 5527 5520 5525 5506 5531 5521 5566 5554 5566 5564 5561 5562 5559 5548 5543 5535
5435 5428 5433 5437 5455 5468 5464 5472 5485 5505 5508 5517 5518 5526 5524 5522 5531 5526 5524 5523 5524 5522 5524 5520 5498 5519 5499 5530 5532 5526 5534 5533 5537 5542 5543 5548 5557 5556 5563 5564 5564 5546 5543 5537 5529
5439 5441 5441 5455 5465 5465 5467 5476 5495 5505 5512 5517 5517 5517 5516 5517 5525 5529 5531 5529 5527 5519 5525 5516 5509 5498 5501 5538 5540 5526 5548 5548 5548 5550 5557 5548 5557 5562 5562 5561 5545 5541 5537 5535 5529